Waarnemingen

Advertentie
Mijn weer
London/Heathrow Intl, Groot Brittannië (3772): temperatuur & dauwpunt: 12.11.2018 16:00:00 - 18.11.2018 16:00:00 (GMT)London/Heathrow Intl, Groot Brittannië (3772): windsnelheid: 12.11.2018 16:00:00 - 18.11.2018 16:00:00 (GMT)London/Heathrow Intl, Groot Brittannië (3772): windrichting: 12.11.2018 16:00:00 - 18.11.2018 16:00:00 (GMT)London/Heathrow Intl, Groot Brittannië (3772): luchtdruk: 12.11.2018 16:00:00 - 18.11.2018 16:00:00 (GMT)London/Heathrow Intl, Groot Brittannië (3772): zicht: 12.11.2018 16:00:00 - 18.11.2018 16:00:00 (GMT)London/Heathrow Intl, Groot Brittannië (3772): Zonneschijnduur: 12.11.2018 16:00:00 - 18.11.2018 16:00:00 (GMT)London/Heathrow Intl, Groot Brittannië (3772): neerslag: 12.11.2018 16:00:00 - 18.11.2018 16:00:00 (GMT)
Datum & Tijd tt [°C] td [°C] ff [km/u] ff [kn] dd ppp [hPa] vv [km] sd [min] rr [mm]
18.11.2018 16:00:00 10,3 1,0 21 11 ONO 1026,5 10 18 0,0
18.11.2018 15:00:00 11,2 2,4 15 8 ONO 1026,5 10 60 0,0
18.11.2018 14:00:00 11,4 2,7 22 12 ONO 1026,5 10 54 0,0
18.11.2018 13:00:00 11,4 3,8 26 14 ONO 1026,5 10 60 0,0
18.11.2018 12:00:00 10,7 5,3 21 11 ONO 1027,2 10 60 0,0
18.11.2018 11:00:00 9,5 5,5 18 10 ONO 1027,8 10 60 0,0
18.11.2018 10:00:00 8,5 5,5 13 7 ONO 1028,0 9 60 0,0
18.11.2018 09:00:00 6,7 4,7 11 6 NO 1028,4 8 6 0,0
18.11.2018 08:00:00 5,1 4,0 8 4 NO 1028,2 8 0 0,0
18.11.2018 07:00:00 5,0 3,8 9 5 ONO 1027,8 8 0 0,0
18.11.2018 06:00:00 5,2 3,9 9 5 NO 1027,5 9 0 0,0
18.11.2018 05:00:00 5,0 3,7 9 5 NO 1027,5 10 0 0,0
18.11.2018 04:00:00 5,2 3,9 9 5 NO 1027,2 9 0 0,0
18.11.2018 03:00:00 5,3 3,9 9 5 NO 1027,3 9 0 0,0
18.11.2018 02:00:00 5,5 3,8 8 4 NNO 1027,5 10 0 0,0
18.11.2018 01:00:00 6,2 4,1 8 4 NO 1027,6 10 0 0,0
18.11.2018 00:00:00 6,5 4,6 9 5 NO 1027,7 8 - 0,0
17.11.2018 23:00:00 6,9 4,8 8 4 ONO 1027,5 9 0 0,0
17.11.2018 22:00:00 7,3 5,1 11 6 ONO 1027,6 9 0 0,0
17.11.2018 21:00:00 7,3 5,0 11 6 ONO 1027,4 9 0 0,0
17.11.2018 20:00:00 7,9 5,1 11 6 ONO 1027,2 10 0 0,0
17.11.2018 19:00:00 8,2 5,4 15 8 ONO 1026,9 12 0 0,0
17.11.2018 18:00:00 8,3 5,6 15 8 ONO 1026,6 10 0 0,0
17.11.2018 17:00:00 8,7 5,4 15 8 ONO 1026,3 11 0 0,0
17.11.2018 16:00:00 10,1 5,5 18 10 ONO 1026,3 10 18 0,0
17.11.2018 15:00:00 11,5 5,1 18 10 ONO 1025,9 10 60 0,0
17.11.2018 14:00:00 12,1 4,0 21 11 O 1026,2 10 54 0,0
17.11.2018 13:00:00 11,8 5,5 18 10 O 1026,6 10 60 0,0
17.11.2018 12:00:00 10,6 5,4 18 10 O 1026,9 9 60 0,0
17.11.2018 11:00:00 9,5 5,6 22 12 O 1027,2 8 60 0,0
17.11.2018 10:00:00 8,7 5,8 15 8 O 1027,3 6 54 0,0
17.11.2018 09:00:00 7,0 5,3 13 7 O 1027,3 5 0 0,0
17.11.2018 08:00:00 6,9 5,3 13 7 O 1027,3 5 0 0,0
17.11.2018 07:00:00 6,5 4,8 16 9 O 1026,8 7 0 0,0
17.11.2018 06:00:00 7,3 5,9 21 11 O 1026,3 5 0 0,0
17.11.2018 05:00:00 8,6 8,1 15 8 O 1026,1 5 0 0,0
17.11.2018 04:00:00 8,7 8,4 13 7 ONO 1026,2 2,5 0 0,0
17.11.2018 03:00:00 9,2 8,7 13 7 ONO 1026,5 3,5 0 0,0
17.11.2018 02:00:00 9,3 8,9 11 6 O 1026,5 4,0 0 0,0
17.11.2018 01:00:00 9,2 9,0 11 6 O 1026,5 4,0 0 0,0
17.11.2018 00:00:00 8,9 8,7 13 7 O 1026,4 1,8 - 0,0
16.11.2018 23:00:00 8,9 8,8 15 8 O 1026,3 1,2 0 0,0
16.11.2018 22:00:00 8,9 8,7 15 8 O 1026,2 2,4 0 0,0
16.11.2018 21:00:00 8,9 8,7 15 8 O 1026,1 3,0 0 0,0
16.11.2018 20:00:00 9,2 9,0 11 6 O 1026,2 2,0 0 0,0
16.11.2018 19:00:00 9,2 9,0 11 6 O 1026,1 2,6 0 0,0
16.11.2018 18:00:00 9,4 9,1 13 7 O 1026,0 3,0 0 0,0
16.11.2018 17:00:00 9,5 9,1 11 6 O 1025,6 3,2 0 0,0
16.11.2018 16:00:00 9,8 9,5 11 6 O 1025,2 4,0 0 0,0
16.11.2018 15:00:00 10,1 9,6 13 7 O 1025,3 4,0 0 0,0
16.11.2018 14:00:00 10,1 9,5 8 4 ONO 1025,3 9 0 0,0
16.11.2018 13:00:00 10,2 9,6 15 8 OZO 1025,6 5 0 0,0
16.11.2018 12:00:00 10,7 10,1 9 5 OZO 1025,7 6 0 0,0
16.11.2018 11:00:00 10,9 10,5 8 4 O 1026,0 5 0 0,0
16.11.2018 10:00:00 10,8 10,5 9 5 O 1026,1 4,6 0 0,0
16.11.2018 09:00:00 10,8 10,5 9 5 O 1025,8 2,5 0 0,0
16.11.2018 08:00:00 11,0 10,6 5 3 O 1025,3 3,0 0 0,0
16.11.2018 07:00:00 10,9 10,6 9 5 OZO 1024,4 3,5 0 0,0
16.11.2018 06:00:00 10,9 10,7 11 6 O 1023,9 2,5 0 0,0
16.11.2018 05:00:00 11,0 10,7 9 5 OZO 1023,5 2,0 0 0,0
16.11.2018 04:00:00 11,0 10,6 9 5 OZO 1023,2 2,3 0 0,0
16.11.2018 03:00:00 11,0 10,5 9 5 ZO 1023,2 4,8 0 0,0
16.11.2018 02:00:00 11,2 10,7 8 4 Z 1023,3 2,2 0 0,0
16.11.2018 01:00:00 11,3 10,8 8 4 ZZO 1022,9 3,0 0 0,0
16.11.2018 00:00:00 11,3 10,8 8 4 ZZO 1022,8 3,0 - 0,0
15.11.2018 23:00:00 11,5 10,9 11 6 Z 1022,4 3,3 0 0,0
15.11.2018 22:00:00 11,5 10,8 9 5 ZZO 1021,8 4,2 0 0,0
15.11.2018 21:00:00 11,6 10,7 16 9 ZO 1021,3 4,8 0 0,0
15.11.2018 20:00:00 11,9 10,8 16 9 ZO 1020,9 6 0 0,0
15.11.2018 19:00:00 12,4 11,2 13 7 ZZO 1021,0 6 0 0,0
15.11.2018 18:00:00 12,6 11,1 15 8 ZZO 1020,6 8 0 0,0
15.11.2018 17:00:00 13,2 11,9 11 6 ZO 1020,1 9 0 0,0
15.11.2018 16:00:00 13,5 11,9 13 7 ZO 1019,8 9 0 0,0
15.11.2018 15:00:00 14,4 12,6 13 7 ZO 1020,0 8 0 0,0
15.11.2018 14:00:00 14,7 13,0 11 6 ZO 1020,2 7 0 0,0
15.11.2018 13:00:00 14,2 12,5 11 6 ZO 1020,5 7 0 0,0
15.11.2018 12:00:00 13,9 12,1 11 6 ZZO 1020,9 8 0 0,0
15.11.2018 11:00:00 13,6 11,6 11 6 - 1021,0 10 0 0,0
15.11.2018 10:00:00 13,3 11,4 11 6 ZZO 1021,2 8 6 0,0
15.11.2018 09:00:00 12,5 11,7 11 6 ZO 1021,2 6 0 0,0
15.11.2018 08:00:00 11,8 11,0 9 5 ZO 1021,0 6 0 0,0
15.11.2018 07:00:00 12,1 11,1 9 5 ZO 1020,6 7 0 0,0
15.11.2018 06:00:00 11,7 11,2 5 3 ZO 1020,5 4,4 0 0,0
15.11.2018 05:00:00 11,4 11,1 5 3 O 1020,3 5 0 0,0
15.11.2018 04:00:00 11,6 11,3 8 4 Z 1020,4 3,8 0 0,0
15.11.2018 03:00:00 11,6 11,4 8 4 ZO 1020,2 3,6 0 0,0
15.11.2018 02:00:00 11,4 11,2 11 6 OZO 1020,4 3,3 0 0,2
15.11.2018 01:00:00 11,1 10,9 8 4 ZO 1020,4 3,5 0 0,0
15.11.2018 00:00:00 10,7 10,3 4 2 ZO 1020,7 4,5 - 0,0
14.11.2018 23:00:00 10,7 10,4 8 4 ZO 1020,8 5 0 0,0
14.11.2018 22:00:00 10,7 9,9 9 5 Z 1021,1 6 0 0,0
14.11.2018 21:00:00 10,7 9,7 8 4 ZO 1021,1 5 0 0,0
14.11.2018 20:00:00 10,6 8,9 8 4 ZZO 1021,3 10 0 0,0
14.11.2018 19:00:00 10,6 8,3 11 6 ZO 1021,4 10 0 0,0
14.11.2018 18:00:00 11,5 8,1 13 7 Z 1021,3 10 0 0,0
14.11.2018 17:00:00 12,3 8,0 9 5 ZZO 1021,0 10 0 0,0
14.11.2018 16:00:00 13,1 7,4 13 7 Z 1021,1 10 30 0,0
14.11.2018 15:00:00 14,0 7,1 16 9 Z 1021,2 10 54 0,0
14.11.2018 14:00:00 14,6 7,5 18 10 Z 1021,3 10 60 0,0
14.11.2018 13:00:00 13,8 7,8 16 9 ZZW 1021,9 10 60 0,0
14.11.2018 12:00:00 14,0 8,0 22 12 ZZW 1022,3 10 60 0,0
14.11.2018 11:00:00 13,4 8,5 21 11 ZZW 1022,7 10 60 0,0
14.11.2018 10:00:00 12,6 9,2 21 11 ZZW 1023,0 10 60 0,0
14.11.2018 09:00:00 11,3 9,1 15 8 Z 1022,8 26 6 0,0
14.11.2018 08:00:00 10,7 8,9 13 7 Z 1022,9 10 0 0,0
14.11.2018 07:00:00 10,7 8,6 13 7 Z 1022,5 10 0 0,0
14.11.2018 06:00:00 10,3 8,4 9 5 Z 1022,4 10 0 0,0
14.11.2018 05:00:00 10,6 9,0 11 6 Z 1022,4 10 0 0,0
14.11.2018 04:00:00 10,6 9,0 16 9 ZZW 1022,4 10 0 0,0
14.11.2018 03:00:00 10,4 9,1 13 7 Z 1022,7 10 0 0,0
14.11.2018 02:00:00 10,7 9,0 15 8 Z 1023,5 10 0 0,0
14.11.2018 01:00:00 11,1 9,5 11 6 Z 1024,0 10 0 0,0
14.11.2018 00:00:00 9,4 7,9 5 3 ZZO 1024,7 10 - 0,0
13.11.2018 23:00:00 10,3 8,4 9 5 Z 1025,1 10 0 0,0
13.11.2018 22:00:00 10,0 8,3 13 7 Z 1025,0 10 0 0,0
13.11.2018 21:00:00 10,5 8,6 15 8 ZZW 1025,3 10 0 0,0
13.11.2018 20:00:00 10,7 8,4 13 7 Z 1025,1 10 0 0,0
13.11.2018 19:00:00 10,9 8,2 15 8 ZZW 1024,8 10 0 0,0
13.11.2018 18:00:00 11,3 7,7 15 8 Z 1024,4 10 0 0,0
13.11.2018 17:00:00 11,8 6,2 13 7 ZZW 1024,2 10 0 0,0
13.11.2018 16:00:00 12,4 6,0 16 9 ZW 1023,7 10 18 0,0
13.11.2018 15:00:00 13,0 6,7 15 8 ZW 1023,3 10 36 0,0
13.11.2018 14:00:00 13,3 6,9 21 11 ZW 1022,9 10 30 0,0
13.11.2018 13:00:00 13,5 7,6 18 10 WZW 1022,7 10 60 0,0
13.11.2018 12:00:00 13,1 7,2 24 13 WZW 1022,3 10 60 0,0
13.11.2018 11:00:00 12,9 8,0 24 13 WZW 1021,7 10 60 0,0
13.11.2018 10:00:00 11,8 7,7 21 11 WZW 1020,9 10 60 0,0
13.11.2018 09:00:00 10,0 7,2 18 10 WZW 1020,1 10 18 0,0
13.11.2018 08:00:00 8,6 6,7 18 10 ZW 1018,8 10 0 0,0
13.11.2018 07:00:00 8,6 6,8 15 8 ZW 1017,7 10 0 0,0
13.11.2018 06:00:00 7,9 6,1 13 7 ZZW 1016,7 10 0 0,0
13.11.2018 05:00:00 8,3 6,4 13 7 ZZW 1015,8 10 0 0,0
13.11.2018 04:00:00 8,7 6,8 15 8 ZZW 1014,6 10 0 0,0
13.11.2018 03:00:00 9,1 6,7 13 7 ZW 1014,1 10 0 0,0
13.11.2018 02:00:00 9,5 6,7 13 7 ZW 1013,5 10 0 0,0
13.11.2018 01:00:00 9,4 5,9 11 6 ZZW 1012,9 10 0 0,0
13.11.2018 00:00:00 10,3 6,7 16 9 ZW 1012,6 10 - 0,0
12.11.2018 23:00:00 10,8 8,2 16 9 ZZW 1012,0 10 0 0,0
12.11.2018 22:00:00 10,3 7,9 18 10 Z 1011,6 10 0 0,0
12.11.2018 21:00:00 10,7 7,8 15 8 Z 1011,9 10 0 0,0
12.11.2018 20:00:00 11,2 8,3 15 8 Z 1011,5 16 0 0,0
12.11.2018 19:00:00 11,0 7,4 18 10 Z 1011,7 10 0 0,0
12.11.2018 18:00:00 11,0 7,9 15 8 Z 1011,5 21 0 0,0
12.11.2018 17:00:00 11,6 7,7 22 12 Z 1011,3 10 0 0,0
12.11.2018 16:00:00 12,3 8,1 21 11 ZZW 1010,4 18 18 0,0

tt = temperatuur
td = dauwpunt
ff = windsnelheid
dd = windrichting
ppp = luchtdruk
vv = zicht
sd = Zonneschijnduur
rr = neerslag

Weerstations in de omgeving